Whidbey Island, WA
on Friday, November 16, 2012

Friday
Previous Day Next Day
Daily Summary
 ActualAverageRecord
Temperature
Mean Temperature °F °F  
Max Temperature 48°F 48°F 55°F (1997)
Min Temperature 37°F 38°F 25°F (2000)
Degree Days
Heating Degree Days 22    
Moisture
Dew Point 39°F   
Average Humidity 83    
Maximum Humidity 93    
Minimum Humidity 66    
Precipitation
Precipitation 0.01 in in in ()
Wind
Wind Speed 8 mph   
Max Wind Speed 23 mph   
Max Gust Speed 32 mph   
Visibility 8 miles   
Events Fog , Rain   
Averages and records for this station are not official NWS values.
Key: T is trace of precipitation, MM is missing value
Source: NWS Daily Summary
Seasonal Weather Averages
Time(PST)TemperatureDew PointHumidity Pressure Visibility Wind DirectionWind SpeedGust SpeedPrecipitationEvents Conditions
12:56 AM 37.9°F 35.1°F 89% 29.96 in 1.0 miles Calm Calm - N/A   Overcast
1:56 AM 39.0°F 36.0°F 89% 29.95 in 0.8 miles Calm Calm - N/A   Overcast
2:56 AM 39.0°F 37.0°F 93% 29.94 in 0.2 miles ENE 3.5 mph - N/A Fog Fog
3:56 AM 37.9°F 36.0°F 93% 29.93 in 1.0 miles ESE 4.6 mph - N/A   Mostly Cloudy
4:56 AM 37.9°F 36.0°F 93% 29.92 in 2.5 miles ESE 4.6 mph - N/A   Overcast
5:34 AM 37.4°F 35.6°F 93% 29.90 in 2.5 miles ESE 4.6 mph - N/A   Overcast
5:56 AM 39.9°F 37.0°F 89% 29.91 in 6.0 miles ESE 5.8 mph - N/A   Overcast
6:56 AM 39.9°F 37.0°F 89% 29.90 in 5.0 miles East 6.9 mph - N/A   Overcast
7:56 AM 39.0°F 36.0°F 89% 29.91 in 10.0 miles ESE 9.2 mph - N/A   Mostly Cloudy
8:56 AM 39.9°F 37.0°F 89% 29.91 in 10.0 miles East 4.6 mph - N/A   Overcast
9:56 AM 44.1°F 39.9°F 85% 29.91 in 10.0 miles East 6.9 mph - N/A   Mostly Cloudy
10:56 AM 45.0°F 39.0°F 80% 29.91 in 10.0 miles SE 5.8 mph - N/A   Overcast
11:56 AM 46.0°F 37.9°F 73% 29.89 in 10.0 miles SSE 6.9 mph - N/A   Overcast
12:56 PM 46.9°F 39.0°F 74% 29.87 in 10.0 miles East 6.9 mph - N/A   Overcast
1:56 PM 48.0°F 37.9°F 68% 29.84 in 10.0 miles ESE 9.2 mph - N/A   Overcast
2:56 PM 48.9°F 39.0°F 69% 29.82 in 10.0 miles ESE 13.8 mph - N/A   Overcast
3:56 PM 48.9°F 37.9°F 66% 29.81 in 10.0 miles SE 9.2 mph - N/A   Overcast
4:56 PM 48.0°F 39.9°F 74% 29.80 in 10.0 miles SE 17.3 mph 25.3 mph 0.00 in Rain Light Rain
5:56 PM 46.9°F 42.1°F 83% 29.77 in 10.0 miles SE 16.1 mph 24.2 mph 0.00 in Rain Light Rain
6:56 PM 46.9°F 42.1°F 83% 29.74 in 10.0 miles ESE 13.8 mph - 0.00 in Rain Light Rain
7:56 PM 48.9°F 44.1°F 83% 29.72 in 10.0 miles ESE 21.9 mph 32.2 mph 0.00 in Rain Light Rain
8:56 PM 48.9°F 43.0°F 80% 29.71 in 10.0 miles SE 21.9 mph 28.8 mph 0.01 in Rain Light Rain
9:37 PM 48.2°F 42.8°F 82% 29.70 in 10.0 miles SE 18.4 mph 25.3 mph 0.00 in   Overcast
9:56 PM 48.0°F 43.0°F 83% 29.72 in 10.0 miles SE 18.4 mph - 0.00 in   Overcast
10:19 PM 46.4°F 42.8°F 87% 29.69 in 10.0 miles SE 17.3 mph - 0.00 in Rain Light Rain
10:56 PM 48.0°F 43.0°F 83% 29.69 in 10.0 miles SE 20.7 mph - 0.00 in   Overcast
11:39 PM 48.2°F 42.8°F 82% 29.67 in 10.0 miles SE 23.0 mph 32.2 mph 0.00 in Rain Light Rain
11:56 PM 48.0°F 43.0°F 83% 29.67 in 10.0 miles SE 23.0 mph - 0.00 in Rain Light Rain
Moon Phase
Nov. 16 Nov. 20 Nov. 28 Dec. 06 Dec. 13
Sunrise:07:20 AM (PST) Moon Rise:10:23 AM (PST)11/16
Sunset:04:30 PM (PST) Moon Set:07:33 PM (PST)11/16

Copyright © 2014 The Weather Underground, Inc.